Location: *
(45.9500°N, 9.0833°E)
Time: 15:35:03
(UTC+00:00)

Helios 1A Rocket - Pass Details

Date: 03 March 2021
Orbit: 563 x 585 km, 98.3° (Epoch: 15 April)

Event Time Altitude Azimuth Distance (km) Brightness Sun altitude
Rises 17:38:02 0° 139° (SE) 2,769 6.0 -5.1°
Reaches altitude 10° 17:40:21 10° 128° (SE) 1,872 5.1 -5.5°
Maximum altitude 17:43:52 29° 67° (ENE) 1,050 3.7 -6.1°
Drops below altitude 10° 17:47:24 10° 7° (N) 1,875 5.4 -6.8°
Sets 17:49:44 0° 356° (N) 2,774 6.4 -7.2°
